Powrót do katalogu

FENGYUN 1C DEB

AktywnySSO
NORAD 36734·DEBRIS·🇨🇳 China

Wystrzelony May 10, 1999 z Taiyuan Satellite Launch Center

Loading…

Następne Przeloty (najbliższe 24 godziny)

TLE

ŚwieżeSource: Space-Track

Epoka: Sep 13, 2026, 21:41 UTC

1 36734U 99025EBG 26256.90410086  .00002139  00000-0  88160-3 0  9998
2 36734  99.0396 318.0427 0035825 147.8550 212.4824 14.27622328866582

Śledź FENGYUN 1C DEB w czasie rzeczywistym z AllMySat

Download on the App Store